Regional Weather Roundup
Issued by NWS Sioux Falls, SD

Home | Current Version | Previous Version | Text Only | Print | Product List | Glossary On
Versions: 1 2 3 4 5 6 7 8 9 10 11 12 13 14 15 16 17 18 19 20 21 22 23 24 25 26 27 28 29 30 31 32 33 34 35 36 37 38 39 40 41 42 43 44 45 46 47 48 49 50
000
ASUS43 KFSD 280710
RWRFSD

WEATHER ROUNDUP FOR SE SOUTH DAKOTA/SW MINNESOTA/NW IOWA
NATIONAL WEATHER SERVICE SIOUX FALLS SD
200 AM CDT TUE MAR 28 2017

NOTE: "FAIR" INDICATES FEW OR NO CLOUDS BELOW 12,000 FEET WITH NO
SIGNIFICANT WEATHER AND OR OBSTRUCTIONS TO VISIBILITY.


SDZ038>040-050-052>070-280800-
SOUTHEAST SOUTH DAKOTA

CITY           SKY/WX    TMP DP  RH WIND       PRES   REMARKS
BROOKINGS      MOCLDY    39  35  86 E3        30.04R
CHAMBERLAIN    CLOUDY    48  40  74 E8        30.00S
HURON          PTCLDY    41  37  86 SE9       30.03R
MADISON        CLOUDY    41  41 100 S6        30.04S
MITCHELL       CLEAR     37  35  92 E5        30.05R
SIOUX FALLS    PTCLDY    38  36  92 CALM      30.05R
WINNER         FAIR      46  38  73 SE8       29.98R
YANKTON        CLOUDY    41  37  87 SE3       30.04S
$$

MNZ071-072-080-081-089-090-097-098-280800-
SOUTHWEST MINNESOTA

CITY           SKY/WX    TMP DP  RH WIND       PRES   REMARKS
FAIRMONT       CLOUDY    37  35  92 NW3       30.05R
JACKSON        CLEAR     36  34  93 W5        30.05R
LUVERNE        CLEAR     34  32  93 CALM      30.06R
MARSHALL       CLOUDY    38  35  89 W7        30.06R
MONTEVIDEO     CLOUDY    37  30  75 CALM      30.07R
PIPESTONE      MOCLDY    39  34  81 CALM      30.04S
REDWOOD FALLS  PTCLDY    41  33  73 SW3       30.05R
TRACY          CLOUDY    43  39  84 CALM      30.05R
WINDOM         CLEAR     34  34 100 CALM      30.05R FOG
WORTHINGTON    CLOUDY    35  33  92 W5        30.06R
$$

IAZ001>003-012>014-020>022-031-032-NEZ013-014-SDZ071-280800-
NORTHWEST IOWA

CITY           SKY/WX    TMP DP  RH WIND       PRES   REMARKS
CHEROKEE       CLEAR     34  34 100 CALM      30.05R
DENISON        CLOUDY    46  41  81 CALM      30.06R
ESTHERVILLE    CLEAR     34  34 100 NW9       30.04R FOG     WCI  27
LE MARS        PTCLDY    34  34 100 CALM      30.07R FOG
ORANGE CITY    CLEAR     39  37  93 CALM      30.05R
SHELDON        PTCLDY    32  32 100 CALM      30.04R FOG
SIOUX CITY     CLEAR     37  35  92 N3        30.06R
SPENCER        CLEAR     30  29  96 CALM      30.05R
STORM LAKE     CLEAR     43  39  87 CALM      30.04S
$$

ABBREVIATIONS USED IN REMARKS
   TC - TEMPERATURE IN CELSIUS
  WCI - WIND CHILL INDEX
   HX - HEAT INDEX
  VSB - VISIBILITY





USA.gov is the U.S. government's official web portal to all federal, state and local government web resources and services.